Torna al catalogo

OSCAR 10

AttivoRadioamatoreHEO
NORAD 14129·PAYLOAD·🇩🇪 Germany

Lanciato Jun 16, 1983 da Guiana Space Centre

Loading…

Prossimi Passaggi (prossime 24 ore)

TLE

AggiornatoSource: Space-Track

Epoca: Sep 10, 2026, 19:39 UTC

1 14129U 83058B   26253.81923402 -.00000299  00000-0  00000+0 0  9998
2 14129  25.9748 205.5539 5983154 139.1490 286.0555  2.05871418297257

Traccia OSCAR 10 in tempo reale con AllMySat

Download on the App Store